Flag for Brazil Weather past 2 weeks in Ribeirão Prêto, São Paulo, Brazil

Now
86 °F

Passing clouds.


Feels Like: 87 °F
Forecast: 71 / 89 °F
Wind: 9 mph from East

Location: Leite Lopes / Ribeir

Current Time: Dec 18, 2014 at 6:03:14 PM

Latest Report: Dec 18, 2014 at 5:00 PM


Visibility: N/A

Pressure: 29.80 "Hg

Humidity: 49%

Dew point: 64 °F

Location of Ribeirão PrêtoLocation

Historic Weather in Ribeirão Prêto — Graph

°F

Ribeirão Prêto temperature yesterday

Maximum temperature yesterday: 95 °F (at 5:00 PM)
Minimum temperature yesterday: 70 °F (at 5:00 AM)
Average temperature yesterday: 82 °F

Past Weeks' High & Low Weather Summary

 TemperatureHumidityPressure
High95 °F (Dec 17, 5:00 PM)100% (Dec 5, 7:00 PM)30.04 "Hg (Dec 5, 7:00 PM)
Low36 °F (Dec 5, 7:00 PM)30% (Dec 17, 5:00 PM)29.77 "Hg (Dec 14, 5:00 PM)
Average76 °F69%29.93 "Hg
* Reported Dec 3 5:00 PM — Dec 18 5:00 PM, Ribeirão Prêto, Weather by CustomWeather, © 2014

Note: Actual official high and low records may vary slightly from our data, if they occured in-between our weather recording intervals... More about our weather records

Advertising

Ribeirão Prêto weather history for previous 24 hours

 ConditionsComfort  
Time TempWeatherWind HumidityBarometerVisibility
5:00 PM
Dec 18
86 °FPassing clouds.9 mph49%29.80 "HgN/A
4:00 PM86 °FScattered clouds.7 mph55%29.80 "HgN/A
3:00 PM81 °FThunderstorms. Scattered clouds.15 mph62%29.83 "HgN/A
2:00 PM79 °FThunderstorms. Scattered clouds.17 mph65%N/AN/A
1:00 PM90 °FScattered showers. Partly sunny.14 mph49%29.83 "HgN/A
12:00 PM90 °FScattered clouds.5 mph49%29.86 "HgN/A
11:00 AM90 °FSunny.3 mph49%29.86 "Hg10 mi
10:00 AM82 °FSunny.5 mph62%29.86 "Hg10 mi
9:00 AM81 °FSunny.5 mph62%29.89 "Hg10 mi
8:00 AM75 °FSunny.2 mph78%29.86 "Hg10 mi
7:00 AM73 °FSunny.3 mph78%29.83 "Hg10 mi
6:00 AM73 °FClear.6 mph78%29.83 "Hg10 mi
5:00 AM73 °FClear.5 mph78%29.83 "Hg10 mi
4:00 AM73 °FClear.3 mph78%29.83 "Hg10 mi
3:00 AM75 °FClear.3 mph78%29.83 "Hg10 mi
2:00 AM75 °FClear.3 mph78%29.86 "Hg10 mi
1:00 AM77 °FClear.No wind69%29.86 "Hg10 mi
12:00 AM77 °FClear.1 mph69%29.89 "Hg10 mi
11:00 PM
Dec 17
79 °FClear.3 mph70%29.86 "Hg10 mi
10:00 PM82 °FClear.1 mph55%29.86 "Hg10 mi
9:00 PM84 °FClear.2 mph51%29.83 "Hg10 mi
8:00 PM88 °FClear.5 mph40%29.80 "Hg10 mi
7:00 PM91 °FPassing clouds.7 mph34%29.80 "HgN/A
6:00 PM91 °FPassing clouds.7 mph32%29.80 "HgN/A
Weather by CustomWeather, © 2014

See weather overviewHow to use our weather pages